Weather in Vydrino

Russia / Chelyabinsk Oblast     54°29′00″N   59°50′01″E
temp.,
°C
wind,
m/s
gust,
m/s
humid.,
%
clouds,
%
prec.,
mm/h
press.,
hPa
HPBL,
m
19 may, wed
wed1923:00+16ne612670 0.0 1018608
02:00+13nne6118661 0.4 1019513
05:00+10ne5119260 0.4 1021429
08:00+12ne577479 0.0 1022655
11:00+16ne675611 0.0 10221256
14:00+19ene67450 0.0 10221557
17:00+20e55410 0.0 10211597
20:00+17ene3556100 0.0 1022118
20 may, thu
thu2023:00+12ene22662 0.0 102315
02:00+10n117321 0.0 102410
05:00+9n117816 0.0 102510
08:00+14sse116096 0.0 1024239
11:00+19sse33425 0.0 10231292
14:00+22sse34333 0.0 10221635
17:00+23s44295 0.0 10211799
20:00+19sse22444 0.0 102121
21 may, fri
fri2123:00+14s22485 0.0 102110
02:00+12sw115535 0.0 102110
05:00+11sw11590 0.0 102110
08:00+17sw37480 0.0 1022337
11:00+22ssw57330 0.0 10201545
14:00+24ssw56290 0.0 10192001
17:00+24sw6731100 0.0 10182250
20:00+19sw365488 0.0 1019147
22 may, sat
sat2223:00+15wsw225659 0.0 102011
02:00+14wsw226069 0.0 102011
05:00+13wsw11665 0.0 102110
08:00+18wsw2253100 0.0 1021234
11:00+23sw354261 0.0 10201512
14:00+25ssw4533100 0.0 10192455
17:00+26wnw653177 0.0 10192121
20:00+20wnw49536 0.0 1020182
23 may, sun
sun2323:00+16nw226298 0.0 102117
02:00+14w1171100 0.0 102111
05:00+13sw2276100 0.0 102120
08:00+17n676999 0.0 1023635
11:00+17nne2363100 0.0 1024624
14:00+22e3349100 0.0 10231034
17:00+23ene3247100 0.0 1022883
20:00+20e2260100 0.0 102230